METEOR M2-3 DEB, 60448

Orbit data source: Space-Track

METEOR M2-3 DEB, 60448 is space debris in SSO originally from a Commonwealth of Independent States-origin launch on Tue, 27 Jun 2023 UTC launched from the Vostochny Cosmodrome (VOSTO). Debris objects in space refer to the collection of defunct objects orbiting the Earth. Examples of debris include non-operational satellites, rocket bodies, and fragments generated from explosions, collisions, or faulty payload assembly.

Loading next visibility...
Identifier
60448, 2023-091BC
Orbit
SSO
Country
Flag of CISCIS
Related business
Manufacturer
VNIIEM
Mission
Spacecraft
Bus & Motor
RESURS-O, Unknown motor
Mass
Unknown
Launch date (UTC)
2023-06-27 (3 years ago)
Launch vehicle
Unknown
Launch site
Vostochny Cosmodrome (VOSTO)
Object type
Payload
Rocket body
Debris
Shape & HBR
Unknown shape, 0.1 m
Radar Cross Section
Medium (>0.1 m² and <1 m²)

Expand to show TLE details & history
Last TLE update: 12 hours ago

TLE from 12 hours ago
0 METEOR M2-3 DEB
1 60448U 23091BC  26207.63609736  .00000314  00000-0  15234-3 0  9990
2 60448  98.6092 262.7781 0004958  62.3298 297.8384 14.25065367124442
Epoch: 2026-07-26T15:15Z
TLE epoch observation values (Epoch: 2026-07-26T15:15:58.811Z)
Latitude
-0.00008°
Longitude
89.45188°
Altitude
809.535 km
Speed
7.449 km/s
True Right ascension
17h 31m 06s
True Declination
0° 00' 00"
Sunlit
Object was in full shadow at epoch
Visualization orbit readout
Latitude
Unknown
Longitude
Unknown
Altitude
Unknown
Speed
Unknown
Apparent Right ascension
Unknown
Apparent Declination
Unknown
Sunlit
N/A
Visualization observer readout
Local Sidereal Time
17:04:31
Azimuth
Unknown
Elevation
Unknown
Doppler factor
Unknown
Orbital elements
Apogee altitude
808.982 km
Perigee altitude
801.858 km
Semi-major axis
7,183.557 km
Eccentricity
0.0005
Inclination
98.6092°
RAAN
262.7781°
Arg. of periapsis
62.3298°
True anomaly
297.78815°
Mean anomaly
297.8384°
Eccentric anomaly
297.81327°
Mean motion
3.56479 °/min
Orbital period
100.99 mins
BSTAR
0.00015234
Loading maneuver chart data...
Computing Atmospheric mass density...
Loading historical data...
Loading historical data...
Loading historical data...
Loading historical data...
Loading historical data...
Loading historical data...
Loading historical data...

Documentation

Showing up to 5 results
|